TimeEST,TemperatureF,Dew PointF,Humidity,Sea Level PressureIn,VisibilityMPH,Wind Direction,Wind SpeedMPH,Gust SpeedMPH,PrecipitationIn,Events,Conditions,WindDirDegrees,DateUTC
12:15 AM,35.1,29.8,81,29.90,7.0,West,11.5,-,N/A,,Overcast,280,2012-12-11 05:15:00
12:35 AM,34.7,29.7,82,29.90,10.0,West,9.2,-,N/A,,Overcast,280,2012-12-11 05:35:00
12:55 AM,34.7,29.7,82,29.90,7.0,West,10.4,-,N/A,,Overcast,280,2012-12-11 05:55:00
1:15 AM,34.7,29.5,81,29.90,7.0,West,8.1,-,N/A,,Overcast,280,2012-12-11 06:15:00
1:35 AM,34.5,29.3,81,29.91,7.0,West,8.1,-,N/A,,Overcast,270,2012-12-11 06:35:00
1:55 AM,34.3,29.3,82,29.91,7.0,West,9.2,-,N/A,,Overcast,270,2012-12-11 06:55:00
2:15 AM,34.2,29.5,83,29.93,7.0,West,9.2,-,N/A,,Overcast,260,2012-12-11 07:15:00
2:35 AM,34.2,29.3,82,29.93,10.0,West,12.7,-,N/A,,Overcast,280,2012-12-11 07:35:00
2:55 AM,34.2,29.3,82,29.93,10.0,West,8.1,-,N/A,,Overcast,270,2012-12-11 07:55:00
3:15 AM,34.3,29.3,82,29.93,10.0,West,6.9,-,N/A,,Overcast,270,2012-12-11 08:15:00
3:35 AM,34.3,29.5,82,29.94,10.0,West,9.2,-,N/A,,Overcast,270,2012-12-11 08:35:00
3:55 AM,34.3,29.5,82,29.94,10.0,West,6.9,-,N/A,,Overcast,260,2012-12-11 08:55:00
4:15 AM,34.5,29.5,82,29.95,10.0,West,10.4,-,N/A,,Overcast,270,2012-12-11 09:15:00
4:35 AM,34.7,29.7,82,29.95,10.0,West,6.9,-,N/A,,Overcast,270,2012-12-11 09:35:00
4:55 AM,34.7,29.8,82,29.95,10.0,West,11.5,-,N/A,,Overcast,270,2012-12-11 09:55:00
5:15 AM,34.7,30.0,83,29.96,10.0,West,9.2,-,N/A,,Overcast,260,2012-12-11 10:15:00
5:35 AM,34.7,30.0,83,29.97,10.0,West,10.4,-,N/A,,Overcast,260,2012-12-11 10:35:00
5:55 AM,34.9,29.8,82,29.98,10.0,West,10.4,-,N/A,,Overcast,270,2012-12-11 10:55:00
6:15 AM,34.9,29.5,81,29.98,10.0,West,8.1,-,N/A,,Overcast,270,2012-12-11 11:15:00
6:35 AM,34.9,29.5,81,29.98,10.0,West,8.1,-,N/A,,Overcast,260,2012-12-11 11:35:00
6:55 AM,34.9,29.3,80,30.00,10.0,West,8.1,-,N/A,,Overcast,280,2012-12-11 11:55:00
7:15 AM,34.9,29.1,79,30.01,10.0,West,10.4,-,N/A,,Overcast,260,2012-12-11 12:15:00
7:35 AM,34.9,28.9,79,30.01,10.0,WSW,6.9,-,N/A,,Overcast,250,2012-12-11 12:35:00
7:55 AM,34.7,29.5,81,30.02,10.0,WSW,9.2,-,N/A,,Overcast,250,2012-12-11 12:55:00
8:15 AM,34.7,29.7,82,30.03,10.0,WSW,8.1,-,N/A,,Overcast,240,2012-12-11 13:15:00
8:35 AM,34.7,29.8,82,30.04,7.0,WSW,8.1,-,N/A,,Overcast,250,2012-12-11 13:35:00
8:55 AM,34.9,29.8,82,30.05,7.0,West,8.1,-,N/A,,Overcast,260,2012-12-11 13:55:00
9:15 AM,34.9,29.8,82,30.06,10.0,West,8.1,-,N/A,,Overcast,260,2012-12-11 14:15:00
9:35 AM,35.2,30.0,81,30.06,7.0,WSW,5.8,-,N/A,,Overcast,250,2012-12-11 14:35:00
9:55 AM,35.6,30.0,80,30.08,10.0,West,5.8,-,N/A,,Overcast,260,2012-12-11 14:55:00
10:15 AM,36.3,29.5,76,30.09,10.0,WSW,8.1,-,N/A,,Overcast,250,2012-12-11 15:15:00
10:35 AM,36.7,29.7,76,30.09,10.0,West,8.1,-,N/A,,Overcast,260,2012-12-11 15:35:00
10:55 AM,36.9,29.8,76,30.09,10.0,West,9.2,-,N/A,,Overcast,260,2012-12-11 15:55:00
11:15 AM,36.9,29.7,75,30.10,10.0,WSW,11.5,-,N/A,,Overcast,250,2012-12-11 16:15:00
11:35 AM,36.3,29.7,77,30.10,10.0,WSW,11.5,-,N/A,,Overcast,250,2012-12-11 16:35:00
11:55 AM,35.8,29.7,78,30.10,10.0,WSW,10.4,-,N/A,,Overcast,250,2012-12-11 16:55:00
12:15 PM,35.8,29.7,78,30.10,7.0,WSW,9.2,-,N/A,,Overcast,250,2012-12-11 17:15:00
12:35 PM,35.6,29.3,78,30.10,10.0,WSW,11.5,-,N/A,,Overcast,250,2012-12-11 17:35:00
12:55 PM,35.6,28.6,76,30.11,10.0,West,10.4,-,N/A,,Overcast,260,2012-12-11 17:55:00
1:15 PM,36.0,28.0,73,30.10,10.0,West,10.4,-,N/A,,Overcast,270,2012-12-11 18:15:00
1:35 PM,36.3,28.0,72,30.10,10.0,West,9.2,-,N/A,,Overcast,260,2012-12-11 18:35:00
1:55 PM,36.3,27.9,71,30.10,10.0,West,6.9,-,N/A,,Overcast,260,2012-12-11 18:55:00
2:15 PM,36.9,27.5,69,30.10,10.0,WSW,9.2,-,N/A,,Overcast,250,2012-12-11 19:15:00
2:35 PM,37.2,26.8,66,30.10,10.0,West,11.5,-,N/A,,Overcast,260,2012-12-11 19:35:00
2:55 PM,37.0,26.8,66,30.11,10.0,West,10.4,17.3,N/A,,Overcast,270,2012-12-11 19:55:00
3:35 PM,36.5,26.2,66,30.11,10.0,WSW,10.4,-,N/A,,Overcast,240,2012-12-11 20:35:00
3:55 PM,36.5,25.5,64,30.13,10.0,West,10.4,-,N/A,,Overcast,260,2012-12-11 20:55:00
4:15 PM,36.3,25.7,65,30.13,10.0,West,10.4,-,N/A,,Overcast,260,2012-12-11 21:15:00
4:35 PM,36.1,24.8,63,30.14,10.0,WSW,9.2,-,N/A,,Overcast,250,2012-12-11 21:35:00
4:55 PM,35.8,23.4,61,30.15,10.0,WSW,8.1,-,N/A,,Overcast,250,2012-12-11 21:55:00
5:15 PM,35.4,23.7,62,30.15,10.0,West,10.4,-,N/A,,Overcast,260,2012-12-11 22:15:00
5:35 PM,34.5,23.7,65,30.15,10.0,West,6.9,-,N/A,,Overcast,260,2012-12-11 22:35:00
5:55 PM,33.6,23.4,66,30.15,10.0,West,5.8,-,N/A,,Mostly Cloudy,270,2012-12-11 22:55:00
6:15 PM,32.9,23.0,67,30.16,10.0,WSW,3.5,-,N/A,,Scattered Clouds,240,2012-12-11 23:15:00
6:35 PM,32.4,23.5,70,30.17,10.0,WSW,5.8,-,N/A,,Scattered Clouds,250,2012-12-11 23:35:00
6:55 PM,32.0,23.9,72,30.18,10.0,WSW,3.5,-,N/A,,Mostly Cloudy,240,2012-12-11 23:55:00
7:15 PM,32.0,24.4,74,30.18,10.0,SW,4.6,-,N/A,,Scattered Clouds,230,2012-12-12 00:15:00
7:35 PM,31.6,24.3,74,30.18,10.0,SW,3.5,-,N/A,,Scattered Clouds,220,2012-12-12 00:35:00
7:55 PM,31.3,23.7,74,30.19,10.0,WSW,5.8,-,N/A,,Scattered Clouds,240,2012-12-12 00:55:00
8:15 PM,30.6,22.8,73,30.19,10.0,SW,3.5,-,N/A,,Clear,230,2012-12-12 01:15:00
8:35 PM,30.4,23.0,74,30.20,10.0,WSW,4.6,-,N/A,,Clear,240,2012-12-12 01:35:00
8:55 PM,30.0,23.2,76,30.20,10.0,Calm,Calm,-,N/A,,Clear,0,2012-12-12 01:55:00
9:15 PM,30.2,23.5,76,30.21,10.0,Calm,Calm,-,N/A,,Clear,0,2012-12-12 02:15:00
9:35 PM,30.2,23.4,76,30.21,10.0,SW,3.5,-,N/A,,Clear,230,2012-12-12 02:35:00
9:55 PM,30.0,23.4,76,30.21,10.0,SSW,3.5,-,N/A,,Clear,210,2012-12-12 02:55:00
10:15 PM,29.5,22.8,76,30.21,10.0,South,3.5,-,N/A,,Clear,190,2012-12-12 03:15:00
10:35 PM,28.4,22.5,78,30.21,10.0,South,4.6,-,N/A,,Clear,190,2012-12-12 03:35:00
10:55 PM,28.2,22.1,78,30.22,10.0,SSW,4.6,-,N/A,,Clear,210,2012-12-12 03:55:00
11:15 PM,28.8,22.8,78,30.23,10.0,SSW,4.6,-,N/A,,Clear,210,2012-12-12 04:15:00
11:35 PM,28.4,22.6,79,30.24,10.0,SSW,3.5,-,N/A,,Clear,210,2012-12-12 04:35:00
11:55 PM,27.7,22.1,80,30.24,10.0,South,3.5,-,N/A,,Clear,190,2012-12-12 04:55:00